| time (UTC) | temp F | wind direction | speed MPH | gust MPH | rain 1hr in | rain 24hr in | rain mn in | humidity % | barometer mb |
| 20260905064042 | 83 | 0.0 | 0.0 | 0.00 | 0.00 | 0.00 | 66 | 1014.5 | |
| 20260905063041 | 81 | 0.0 | 0.0 | 0.00 | 0.00 | 0.00 | 66 | 1014.7 | |
| 20260905062042 | 80 | 0.0 | 0.0 | 0.00 | 0.00 | 0.00 | 68 | 1014.6 | |
| 20260905061041 | 79 | 0.0 | 0.0 | 0.00 | 0.00 | 0.00 | 69 | 1014.8 | |
| 20260905060041 | 78 | 0.0 | 0.0 | 0.00 | 0.00 | 0.00 | 69 | 1014.7 | |
| 20260905055041 | 80 | 0.0 | 0.0 | 0.00 | 0.00 | 0.00 | 70 | 1014.5 | |
| 20260905054040 | 78 | 0.0 | 0.0 | 0.00 | 0.00 | 0.00 | 72 | 1014.6 | |
| 20260905053041 | 75 | 0.0 | 0.0 | 0.00 | 0.00 | 0.00 | 72 | 1014.9 | |
| 20260905052043 | 75 | 0.0 | 0.0 | 0.00 | 0.00 | 0.00 | 72 | 1014.5 | |
| 20260905051041 | 74 | 0.0 | 0.0 | 0.00 | 0.00 | 0.00 | 72 | 1014.6 | |
| 20260905050042 | 74 | 0.0 | 0.0 | 0.00 | 0.00 | 0.00 | 72 | 1014.3 | |
| 20260905045043 | 74 | 0.0 | 0.0 | 0.00 | 0.00 | 0.00 | 73 | 1013.9 | |
| 20260905044042 | 73 | 0.0 | 0.0 | 0.00 | 0.00 | 0.00 | 74 | 1014.2 | |
| 20260905043043 | 73 | 0.0 | 0.0 | 0.00 | 0.00 | 0.00 | 74 | 1014.2 | |
| 20260905042043 | 73 | 0.0 | 0.0 | 0.00 | 0.00 | 0.00 | 74 | 1014.1 | |
| 20260905041042 | 74 | 0.0 | 0.0 | 0.00 | 0.00 | 0.00 | 73 | 1013.9 | |
| 20260905040042 | 74 | 0.0 | 0.0 | 0.00 | 0.00 | 0.00 | 73 | 1014.4 | |
| 20260905035041 | 74 | 0.0 | 0.0 | 0.00 | 0.00 | 0.00 | 73 | 1014.2 | |
| 20260905034041 | 74 | 0.0 | 0.0 | 0.00 | 0.00 | 0.00 | 73 | 1013.8 | |
| 20260905033042 | 75 | 0.0 | 0.0 | 0.00 | 0.00 | 0.00 | 72 | 1014.2 | |
| 20260905032042 | 75 | 0.0 | 0.0 | 0.00 | 0.00 | 0.00 | 72 | 1014.2 | |
| 20260905031042 | 76 | 0.0 | 0.0 | 0.00 | 0.00 | 0.00 | 71 | 1014.1 | |
| 20260905030042 | 76 | 0.0 | 0.0 | 0.00 | 0.00 | 0.00 | 71 | 1014.0 | |
| 20260905025041 | 76 | 0.0 | 0.0 | 0.00 | 0.00 | 0.00 | 70 | 1013.8 | |
| 20260905024042 | 76 | 0.0 | 0.0 | 0.00 | 0.00 | 0.00 | 70 | 1014.0 | |
| 20260905023041 | 76 | 0.0 | 0.0 | 0.00 | 0.00 | 0.00 | 70 | 1013.8 | |
| 20260905022042 | 76 | 0.0 | 0.0 | 0.00 | 0.00 | 0.00 | 70 | 1013.9 | |
| 20260905021042 | 76 | 0.0 | 0.0 | 0.00 | 0.00 | 0.00 | 70 | 1014.2 | |
| 20260905020041 | 76 | 0.0 | 0.0 | 0.00 | 0.00 | 0.00 | 70 | 1013.7 | |
| 20260905015042 | 76 | 0.0 | 0.0 | 0.00 | 0.00 | 0.00 | 70 | 1013.8 | |
| 20260905014041 | 77 | 0.0 | 0.0 | 0.00 | 0.00 | 0.00 | 70 | 1013.8 | |
| 20260905013042 | 77 | 0.0 | 0.0 | 0.00 | 0.00 | 0.00 | 69 | 1013.8 | |
| 20260905012041 | 76 | 0.0 | 0.0 | 0.00 | 0.00 | 0.00 | 70 | 1013.9 | |
| 20260905011042 | 76 | 0.0 | 0.0 | 0.00 | 0.00 | 0.00 | 70 | 1013.8 | |
| 20260905010041 | 77 | 0.0 | 0.0 | 0.00 | 0.00 | 0.00 | 69 | 1013.9 | |
| 20260905005042 | 77 | 0.0 | 0.0 | 0.00 | 0.00 | 0.00 | 70 | 1014.1 | |
| 20260905004042 | 76 | 0.0 | 0.0 | 0.00 | 0.00 | 0.00 | 71 | 1014.0 | |
| 20260905003042 | 77 | 0.0 | 0.0 | 0.00 | 0.00 | 0.00 | 70 | 1014.1 | |
| 20260905002041 | 76 | 0.0 | 0.0 | 0.00 | 0.00 | 0.00 | 71 | 1014.0 | |
| 20260905001042 | 76 | 0.0 | 0.0 | 0.00 | 0.00 | 0.00 | 71 | 1014.2 | |
| 20260905000042 | 77 | 0.0 | 0.0 | 0.00 | 0.00 | 0.00 | 71 | 1014.4 | |
| 20260904235041 | 76 | 0.0 | 0.0 | 0.00 | 0.00 | 0.00 | 71 | 1014.5 | |
| 20260904234041 | 77 | 0.0 | 0.0 | 0.00 | 0.00 | 0.00 | 71 | 1014.4 | |
| 20260904233041 | 77 | 0.0 | 0.0 | 0.00 | 0.00 | 0.00 | 71 | 1014.6 | |
| 20260904232042 | 77 | 0.0 | 0.0 | 0.00 | 0.00 | 0.00 | 71 | 1014.5 | |
| 20260904231041 | 77 | 0.0 | 0.0 | 0.00 | 0.00 | 0.00 | 70 | 1014.6 | |
| 20260904230041 | 77 | 0.0 | 0.0 | 0.00 | 0.00 | 0.00 | 70 | 1014.7 | |
| 20260904225042 | 80 | 0.0 | 0.0 | 0.00 | 0.00 | 0.00 | 70 | 1014.8 | |
| 20260904224041 | 77 | 0.0 | 0.0 | 0.00 | 0.00 | 0.00 | 70 | 1014.7 | |
| 20260904223042 | 79 | 0.0 | 0.0 | 0.00 | 0.00 | 0.00 | 70 | 1014.5 | |
| 20260904222041 | 78 | 0.0 | 0.0 | 0.00 | 0.00 | 0.00 | 69 | 1014.4 | |
| 20260904221041 | 79 | 0.0 | 0.0 | 0.00 | 0.00 | 0.00 | 68 | 1014.5 | |
| 20260904220041 | 79 | 0.0 | 0.0 | 0.00 | 0.00 | 0.00 | 69 | 1014.8 | |
| 20260904215042 | 80 | 0.0 | 0.0 | 0.00 | 0.00 | 0.00 | 69 | 1014.6 | |
| 20260904214042 | 80 | 0.0 | 0.0 | 0.00 | 0.00 | 0.00 | 68 | 1014.4 | |
| 20260904213042 | 80 | 0.0 | 0.0 | 0.00 | 0.00 | 0.00 | 68 | 1014.6 | |
| 20260904212041 | 80 | 0.0 | 0.0 | 0.00 | 0.00 | 0.00 | 68 | 1014.9 | |
| 20260904211043 | 80 | 0.0 | 0.0 | 0.00 | 0.00 | 0.00 | 67 | 1014.7 | |
| 20260904210043 | 80 | 0.0 | 0.0 | 0.00 | 0.00 | 0.00 | 67 | 1014.6 | |
| 20260904205042 | 80 | 0.0 | 0.0 | 0.00 | 0.00 | 0.00 | 66 | 1014.8 | |
| 20260904204043 | 80 | 0.0 | 0.0 | 0.00 | 0.00 | 0.00 | 66 | 1014.4 | |
| 20260904203041 | 81 | 0.0 | 0.0 | 0.00 | 0.00 | 0.00 | 65 | 1014.5 | |
| 20260904202042 | 80 | 0.0 | 0.0 | 0.00 | 0.00 | 0.00 | 64 | 1014.4 | |
| 20260904201041 | 81 | 0.0 | 0.0 | 0.00 | 0.00 | 0.00 | 64 | 1014.4 | |
| 20260904200041 | 81 | 0.0 | 0.0 | 0.00 | 0.00 | 0.00 | 64 | 1014.4 | |
| 20260904195043 | 82 | 0.0 | 0.0 | 0.00 | 0.00 | 0.00 | 64 | 1014.7 | |
| 20260904194041 | 82 | 0.0 | 0.0 | 0.00 | 0.00 | 0.00 | 64 | 1014.5 | |
| 20260904193042 | 82 | 0.0 | 0.0 | 0.00 | 0.00 | 0.00 | 62 | 1014.8 | |
| 20260904192042 | 83 | 0.0 | 0.0 | 0.00 | 0.00 | 0.00 | 62 | 1014.5 | |
| 20260904191042 | 83 | 0.0 | 0.0 | 0.00 | 0.00 | 0.00 | 63 | 1014.3 | |
| 20260904190043 | 83 | 0.0 | 0.0 | 0.00 | 0.00 | 0.00 | 62 | 1014.6 | |
| 20260904185042 | 83 | 0.0 | 0.0 | 0.00 | 0.00 | 0.00 | 63 | 1014.3 | |
| 20260904184041 | 84 | 0.0 | 0.0 | 0.00 | 0.00 | 0.00 | 63 | 1014.0 | |
| 20260904183043 | 83 | 0.0 | 0.0 | 0.00 | 0.00 | 0.00 | 63 | 1013.8 | |
| 20260904182041 | 84 | 0.0 | 0.0 | 0.00 | 0.00 | 0.00 | 63 | 1013.6 | |
| 20260904181043 | 85 | 0.0 | 0.0 | 0.00 | 0.00 | 0.00 | 61 | 1013.3 | |
| 20260904180042 | 85 | 0.0 | 0.0 | 0.00 | 0.00 | 0.00 | 60 | 1013.6 | |
| 20260904175041 | 85 | 0.0 | 0.0 | 0.00 | 0.00 | 0.00 | 60 | 1013.4 | |
| 20260904174042 | 86 | 0.0 | 0.0 | 0.00 | 0.00 | 0.00 | 61 | 1013.0 | |
| 20260904173040 | 86 | 0.0 | 0.0 | 0.00 | 0.00 | 0.00 | 60 | 1013.2 | |
| 20260904172042 | 86 | 0.0 | 0.0 | 0.00 | 0.00 | 0.00 | 61 | 1012.7 | |
| 20260904171040 | 87 | 0.0 | 0.0 | 0.00 | 0.00 | 0.00 | 60 | 1012.9 | |
| 20260904170042 | 87 | 0.0 | 0.0 | 0.00 | 0.00 | 0.00 | 61 | 1013.2 | |
| 20260904165041 | 88 | 0.0 | 0.0 | 0.00 | 0.00 | 0.00 | 61 | 1013.0 | |
| 20260904164041 | 88 | 0.0 | 0.0 | 0.00 | 0.00 | 0.00 | 61 | 1013.0 | |
| 20260904163041 | 89 | 0.0 | 0.0 | 0.00 | 0.00 | 0.00 | 61 | 1013.1 | |
| 20260904162042 | 89 | 0.0 | 0.0 | 0.00 | 0.00 | 0.00 | 61 | 1013.1 | |
| 20260904161041 | 90 | 0.0 | 0.0 | 0.00 | 0.00 | 0.00 | 60 | 1013.0 | |
| 20260904160042 | 90 | 0.0 | 0.0 | 0.00 | 0.00 | 0.00 | 55 | 1012.9 | |
| 20260904155041 | 91 | 0.0 | 0.0 | 0.00 | 0.00 | 0.00 | 54 | 1012.8 | |
| 20260904154041 | 91 | 0.0 | 0.0 | 0.00 | 0.00 | 0.00 | 55 | 1013.2 | |
| 20260904153041 | 91 | 0.0 | 0.0 | 0.00 | 0.00 | 0.00 | 55 | 1013.1 | |
| 20260904152042 | 91 | 0.0 | 0.0 | 0.00 | 0.00 | 0.00 | 55 | 1013.3 | |
| 20260904151041 | 91 | 0.0 | 0.0 | 0.00 | 0.00 | 0.00 | 55 | 1013.3 | |
| 20260904150041 | 91 | 0.0 | 0.0 | 0.00 | 0.00 | 0.00 | 55 | 1013.5 | |
| 20260904145041 | 91 | 0.0 | 0.0 | 0.00 | 0.00 | 0.00 | 55 | 1013.5 | |
| 20260904144041 | 91 | 0.0 | 0.0 | 0.00 | 0.00 | 0.00 | 55 | 1013.3 | |
| 20260904143041 | 91 | 0.0 | 0.0 | 0.00 | 0.00 | 0.00 | 56 | 1013.6 | |
| 20260904142041 | 91 | 0.0 | 0.0 | 0.00 | 0.00 | 0.00 | 56 | 1013.8 | |
| 20260904141041 | 91 | 0.0 | 0.0 | 0.00 | 0.00 | 0.00 | 55 | 1014.1 | |
| 20260904140041 | 91 | 0.0 | 0.0 | 0.00 | 0.00 | 0.00 | 55 | 1014.2 | |
| 20260904135042 | 91 | 0.0 | 0.0 | 0.00 | 0.00 | 0.00 | 55 | 1014.2 | |
| 20260904134042 | 91 | 0.0 | 0.0 | 0.00 | 0.00 | 0.00 | 54 | 1014.0 | |
| 20260904133041 | 91 | 0.0 | 0.0 | 0.00 | 0.00 | 0.00 | 54 | 1014.1 | |
| 20260904132041 | 91 | 0.0 | 0.0 | 0.00 | 0.00 | 0.00 | 54 | 1014.4 | |
| 20260904131042 | 91 | 0.0 | 0.0 | 0.00 | 0.00 | 0.00 | 54 | 1014.7 | |
| 20260904130041 | 91 | 0.0 | 0.0 | 0.00 | 0.00 | 0.00 | 55 | 1014.4 | |
| 20260904125041 | 91 | 0.0 | 0.0 | 0.00 | 0.00 | 0.00 | 53 | 1014.6 | |
| 20260904124043 | 91 | 0.0 | 0.0 | 0.00 | 0.00 | 0.00 | 54 | 1014.9 | |
| 20260904123041 | 91 | 0.0 | 0.0 | 0.00 | 0.00 | 0.00 | 54 | 1014.9 | |
| 20260904122041 | 92 | 0.0 | 0.0 | 0.00 | 0.00 | 0.00 | 55 | 1015.0 | |
| 20260904121041 | 91 | 0.0 | 0.0 | 0.00 | 0.00 | 0.00 | 54 | 1014.9 | |
| 20260904120042 | 91 | 0.0 | 0.0 | 0.00 | 0.00 | 0.00 | 54 | 1015.0 | |
| 20260904115043 | 91 | 0.0 | 0.0 | 0.00 | 0.00 | 0.00 | 54 | 1015.4 | |
| 20260904114041 | 91 | 0.0 | 0.0 | 0.00 | 0.00 | 0.00 | 56 | 1015.3 | |
| 20260904113041 | 91 | 0.0 | 0.0 | 0.00 | 0.00 | 0.00 | 55 | 1015.6 | |
| 20260904112041 | 92 | 0.0 | 0.0 | 0.00 | 0.00 | 0.00 | 56 | 1015.5 | |
| 20260904111041 | 91 | 0.0 | 0.0 | 0.00 | 0.00 | 0.00 | 55 | 1015.4 | |
| 20260904110041 | 92 | 0.0 | 0.0 | 0.00 | 0.00 | 0.00 | 56 | 1015.5 | |
| 20260904105042 | 91 | 0.0 | 0.0 | 0.00 | 0.00 | 0.00 | 55 | 1015.7 | |
| 20260904104041 | 92 | 0.0 | 0.0 | 0.00 | 0.00 | 0.00 | 55 | 1015.7 | |
| 20260904103043 | 92 | 0.0 | 0.0 | 0.00 | 0.00 | 0.00 | 55 | 1015.9 | |
| 20260904102042 | 92 | 0.0 | 0.0 | 0.00 | 0.00 | 0.00 | 56 | 1016.0 | |
| 20260904101042 | 92 | 0.0 | 0.0 | 0.00 | 0.00 | 0.00 | 55 | 1016.2 | |
| 20260904100041 | 92 | 0.0 | 0.0 | 0.00 | 0.00 | 0.00 | 56 | 1016.2 | |
| 20260904095043 | 92 | 0.0 | 0.0 | 0.00 | 0.00 | 0.00 | 56 | 1016.2 | |
| 20260904094041 | 91 | 0.0 | 0.0 | 0.00 | 0.00 | 0.00 | 55 | 1016.2 | |
| 20260904093043 | 91 | 0.0 | 0.0 | 0.00 | 0.00 | 0.00 | 55 | 1016.4 | |
| 20260904092042 | 92 | 0.0 | 0.0 | 0.00 | 0.00 | 0.00 | 55 | 1016.7 | |
| 20260904091041 | 92 | 0.0 | 0.0 | 0.00 | 0.00 | 0.00 | 55 | 1016.5 | |
| 20260904090042 | 91 | 0.0 | 0.0 | 0.00 | 0.00 | 0.00 | 56 | 1016.5 | |
| 20260904085041 | 90 | 0.0 | 0.0 | 0.00 | 0.00 | 0.00 | 55 | 1016.4 | |
| 20260904084041 | 90 | 0.0 | 0.0 | 0.00 | 0.00 | 0.00 | 55 | 1016.7 | |
| 20260904083042 | 88 | 0.0 | 0.0 | 0.00 | 0.00 | 0.00 | 54 | 1016.6 | |
| 20260904082042 | 89 | 0.0 | 0.0 | 0.00 | 0.00 | 0.00 | 55 | 1016.5 | |
| 20260904081041 | 89 | 0.0 | 0.0 | 0.00 | 0.00 | 0.00 | 55 | 1016.5 | |
| 20260904080041 | 90 | 0.0 | 0.0 | 0.00 | 0.00 | 0.00 | 56 | 1016.7 | |
| 20260904075042 | 89 | 0.0 | 0.0 | 0.00 | 0.00 | 0.00 | 56 | 1016.7 | |
| 20260904074042 | 89 | 0.0 | 0.0 | 0.00 | 0.00 | 0.00 | 57 | 1016.7 | |
| 20260904073042 | 88 | 0.0 | 0.0 | 0.00 | 0.00 | 0.00 | 59 | 1017.0 | |
| 20260904072042 | 88 | 0.0 | 0.0 | 0.00 | 0.00 | 0.00 | 59 | 1016.6 | |
| 20260904071042 | 86 | 0.0 | 0.0 | 0.00 | 0.00 | 0.00 | 59 | 1017.1 | |
| 20260904070041 | 86 | 0.0 | 0.0 | 0.00 | 0.00 | 0.00 | 59 | 1017.5 | |
| 20260904065042 | 85 | 0.0 | 0.0 | 0.00 | 0.00 | 0.00 | 60 | 1017.5 |